User: anonymous
Location: Unspecified
(0.0000°N, 0.0000°E)
Time: 14:21:26
(UTC+02:00)
Language:

SJ-6B - Orbit

View from above orbital plane
View from above orbital plane
View from above satellite
View from above satellite

Ground track
Ground track

The orbit data is extracted from the following two-line orbital elements,

1 28415U 04035C   14208.64301526  .00001947  00000-0  14715-3 0  2506
2 28415 097.7966 213.5473 0057276 093.6688 267.1089 15.02294548539828
Epoch (UTC): 27 July 2014 15:25:56
Eccentricity: 0.0057276
inclination: 97.7966°
perigee height: 520 km
apogee height: 599 km
right ascension of ascending node: 213.5473°
argument of perigee: 93.6688°
revolutions per day: 15.02294548
mean anomaly at epoch: 267.1089°
orbit number at epoch: 53982

The dashed part of the orbit path shows where the satellite is in the earth's shadow,  

DLR